Flag for Australia Weather past 2 weeks in Darwin, Northern Territory, Australia

Now
88 °F

Partly sunny.


Feels Like: 100 °F
Forecast: 79 / 90 °F
Wind: 14 mph from Northwest

Location: Darwin Airport

Current Time: Mar 5, 2015 at 6:40:13 PM

Latest Report: Mar 5, 2015 at 6:00 PM


Visibility: N/A

Pressure: 29.68 "Hg

Humidity: 70%

Dew point: 77 °F

Location of DarwinLocation

Historic Weather in Darwin — Graph

°F

Darwin temperature yesterday

Maximum temperature yesterday: 90 °F (at 1:00 PM)
Minimum temperature yesterday: 77 °F (at 4:30 AM)
Average temperature yesterday: 82 °F

Past Weeks' High & Low Weather Summary

 TemperatureHumidityPressure
High93 °F (Feb 19, 1:30 PM)100% (Feb 20, 5:30 AM)29.86 "Hg (Feb 20, 5:30 AM)
Low72 °F (Feb 20, 5:30 AM)59% (Feb 18, 5:00 PM)29.59 "Hg (Feb 18, 6:00 PM)
Average82 °F84%29.73 "Hg
* Reported Feb 18 4:30 PM — Mar 5 5:00 PM, Darwin, Weather by CustomWeather, © 2015

Note: Actual official high and low records may vary slightly from our data, if they occured in-between our weather recording intervals... More about our weather records

Advertising

Darwin weather history for previous 24 hours

 ConditionsComfort  
Time TempWeatherWind HumidityBarometerVisibility
5:00 PM
Thu, Mar 5
88 °FScattered clouds.13 mph70%29.68 "HgN/A
4:30 PM90 °FScattered clouds.15 mph67%29.68 "HgN/A
4:00 PM90 °FPartly sunny.14 mph67%29.68 "HgN/A
3:30 PM90 °FPartly sunny.14 mph67%29.68 "HgN/A
3:00 PM90 °FPartly sunny.12 mph67%29.71 "HgN/A
2:30 PM90 °FScattered clouds.14 mph67%29.71 "HgN/A
1:30 PM90 °FScattered clouds.12 mph67%29.74 "HgN/A
1:00 PM90 °FScattered clouds.9 mph67%29.74 "HgN/A
12:30 PM90 °FScattered clouds.9 mph63%29.77 "HgN/A
11:30 AM90 °FScattered clouds.8 mph63%29.77 "HgN/A
11:00 AM88 °FPassing clouds.8 mph66%29.77 "HgN/A
10:30 AM86 °FPassing clouds.7 mph75%29.77 "HgN/A
10:00 AM84 °FScattered clouds.8 mph79%29.80 "HgN/A
9:30 AM86 °FPassing clouds.7 mph75%29.80 "HgN/A
9:00 AM84 °FPassing clouds.3 mph84%29.80 "HgN/A
8:30 AM82 °FPassing clouds.7 mph84%29.80 "HgN/A
8:00 AM81 °FScattered clouds.6 mph84%29.80 "HgN/A
7:30 AM79 °FScattered clouds.6 mph89%29.80 "HgN/A
6:30 AM77 °FPassing clouds.6 mph89%29.77 "HgN/A
6:00 AM77 °FPartly cloudy.7 mph89%29.77 "HgN/A
5:30 AM77 °FPassing clouds.6 mph89%29.77 "HgN/A
5:00 AM77 °FPassing clouds.5 mph89%29.77 "HgN/A
4:30 AM77 °FPartly cloudy.5 mph89%29.77 "HgN/A
4:00 AM77 °FPartly cloudy.7 mph89%29.77 "HgN/A
3:30 AM77 °FPassing clouds.3 mph89%29.74 "HgN/A
3:00 AM77 °FPassing clouds.2 mph89%29.74 "HgN/A
2:30 AM77 °FPassing clouds.6 mph89%29.74 "HgN/A
2:00 AM77 °FPassing clouds.6 mph89%29.77 "HgN/A
1:30 AM77 °FPassing clouds.5 mph94%29.77 "HgN/A
1:00 AM77 °FPassing clouds.8 mph94%29.80 "HgN/A
12:30 AM79 °FPartly cloudy.6 mph89%29.80 "HgN/A
12:00 AM79 °FPassing clouds.3 mph94%29.80 "HgN/A
11:30 PM
Wed, Mar 4
79 °FPassing clouds.3 mph89%29.80 "HgN/A
11:00 PM79 °FPassing clouds.5 mph89%29.80 "HgN/A
10:30 PM79 °FPassing clouds.3 mph89%29.80 "HgN/A
10:00 PM79 °FPassing clouds.5 mph84%29.80 "HgN/A
9:30 PM79 °FPassing clouds.2 mph89%29.77 "HgN/A
9:00 PM79 °FPassing clouds.6 mph84%29.77 "HgN/A
8:30 PM77 °FPassing clouds.5 mph83%29.77 "HgN/A
8:00 PM77 °FPassing clouds.6 mph83%29.77 "HgN/A
7:30 PM79 °FRain showers. Broken clouds.14 mph79%29.77 "HgN/A
7:00 PM84 °FThundershowers. Broken clouds.7 mph79%29.77 "HgN/A
6:30 PM86 °FPartly sunny.10 mph75%29.74 "HgN/A
6:00 PM86 °FScattered clouds.14 mph75%29.71 "HgN/A
Weather by CustomWeather, © 2015

See weather overviewHow to use our weather pages